Total_Precipitation_Accumulation
1.61 1.62 2.45 2.58 2.15 1.90 1.88 1.83 1.82 1.88 1.85 1.79 1.71 1.60 1.54 1.38 1.17 1.03 0.91 0.79 0.77 0.84 0.82 0.75 0.72 0.64 0.50 0.41 0.43 0.52 0.62 0.75 0.82 0.82 0.94 1.05 1.02 1.15 1.32 1.53 1.78 2.01 1.67
1.35 1.60 2.49 2.55 2.14 1.78 1.68 1.64 1.75 1.87 1.82 1.70 1.61 1.61 1.45 1.28 1.12 0.98 0.91 0.80 0.75 0.81 0.84 0.79 0.76 0.66 0.52 0.49 0.54 0.59 0.64 0.70 0.81 0.87 1.11 1.26 1.20 1.24 1.15 1.34 1.62 1.86 1.67
1.36 1.51 1.97 2.28 2.09 1.75 1.65 1.74 1.77 1.76 1.74 1.70 1.61 1.62 1.34 1.19 1.13 1.03 0.95 0.88 0.81 0.75 0.75 0.85 0.84 0.75 0.60 0.57 0.62 0.67 0.75 0.76 0.86 1.01 1.56 2.27 1.68 1.36 1.37 1.47 1.59 1.55 1.59
1.36 1.40 1.63 2.09 1.94 1.74 1.70 1.81 1.84 1.81 1.75 1.74 1.63 1.43 1.17 1.13 1.11 1.10 1.07 1.01 0.90 0.79 0.75 0.78 0.79 0.74 0.67 0.65 0.67 0.69 0.81 0.88 0.98 1.15 1.62 2.21 2.10 1.67 1.51 1.54 1.56 1.44 1.56
1.31 1.39 1.77 2.01 1.87 1.76 1.61 1.65 1.76 1.74 1.68 1.65 1.54 1.27 1.10 1.04 1.02 1.05 1.07 1.03 0.96 0.92 0.82 0.79 0.76 0.71 0.69 0.64 0.69 0.78 0.86 0.98 1.18 1.17 1.50 1.99 2.34 1.80 1.43 1.54 1.65 1.53 1.61
1.21 1.28 1.54 1.84 1.84 1.72 1.56 1.56 1.47 1.37 1.36 1.45 1.37 1.16 1.02 1.03 1.00 1.01 0.99 0.95 0.93 0.92 0.89 0.84 0.77 0.73 0.70 0.65 0.70 0.79 0.90 1.01 1.10 1.25 1.57 2.02 2.23 1.75 1.40 1.49 1.67 1.77 1.77
1.15 1.11 1.28 1.55 1.60 1.60 1.58 1.54 1.49 1.32 1.31 1.31 1.26 1.18 1.04 1.00 1.01 1.00 0.91 0.83 0.82 0.84 0.83 0.80 0.75 0.71 0.64 0.63 0.67 0.73 0.86 0.86 0.93 1.27 1.54 1.90 1.78 1.52 1.31 1.44 1.71 1.90 1.86
1.13 1.03 1.09 1.28 1.32 1.28 1.31 1.54 1.57 1.29 1.30 1.25 1.12 1.06 1.02 0.93 0.93 0.91 0.82 0.81 0.82 0.89 0.87 0.79 0.71 0.66 0.61 0.60 0.66 0.72 0.84 0.72 0.66 0.93 1.24 1.64 1.74 1.61 1.30 1.30 1.53 1.70 1.82
1.25 1.10 1.01 0.99 1.02 1.13 1.29 1.27 1.22 1.23 1.34 1.29 1.09 1.02 1.04 0.89 0.81 0.78 0.79 0.82 0.82 0.91 0.91 0.81 0.70 0.62 0.61 0.64 0.70 0.73 0.79 0.76 0.71 0.85 1.00 1.37 1.63 1.63 1.35 1.27 1.40 1.50 1.73
1.15 1.01 0.89 0.83 0.87 0.94 1.07 1.14 1.11 1.09 1.17 1.17 1.08 1.06 1.06 0.87 0.75 0.75 0.76 0.85 0.91 0.93 0.96 0.87 0.71 0.65 0.65 0.69 0.70 0.66 0.65 0.62 0.68 0.76 1.04 1.15 1.61 1.63 1.32 1.19 1.27 1.34 1.42
1.01 0.91 0.84 0.76 0.78 0.85 0.91 0.93 1.04 1.05 1.07 0.99 0.93 0.96 0.87 0.67 0.66 0.70 0.68 0.88 1.01 1.12 1.10 0.99 0.88 0.78 0.72 0.67 0.69 0.67 0.55 0.54 0.72 0.80 1.00 1.26 1.61 1.57 1.29 1.15 1.21 1.19 1.15
1.00 0.90 0.82 0.81 0.77 0.75 0.76 1.01 1.16 1.02 0.92 0.81 0.83 0.82 0.80 0.78 0.77 0.61 0.65 0.87 0.91 0.99 1.02 0.98 0.93 0.79 0.61 0.51 0.57 0.60 0.49 0.57 0.66 0.72 0.88 1.36 1.59 1.57 1.38 1.20 1.16 1.11 1.05
0.95 0.87 0.76 0.77 0.69 0.64 0.75 0.93 1.10 1.14 1.10 1.06 0.91 0.91 0.86 0.78 0.68 0.56 0.58 0.65 0.71 0.78 0.75 0.81 0.81 0.61 0.52 0.54 0.57 0.52 0.49 0.55 0.64 0.72 0.97 1.46 1.67 1.65 1.53 1.31 1.21 1.14 1.12
0.80 0.84 0.73 0.70 0.61 0.55 0.53 0.64 0.80 0.84 0.84 0.85 0.86 0.79 0.80 0.82 0.75 0.66 0.64 0.69 0.73 0.72 0.77 0.83 0.82 0.69 0.60 0.52 0.51 0.54 0.57 0.58 0.67 0.85 1.05 1.39 1.68 1.76 1.72 1.51 1.41 1.32 1.27
0.74 0.74 0.73 0.69 0.64 0.68 0.65 0.60 0.58 0.63 0.68 0.73 0.80 0.72 0.67 0.70 0.73 0.75 0.71 0.78 0.76 0.75 0.78 0.79 0.67 0.66 0.65 0.56 0.54 0.58 0.66 0.65 0.77 0.85 0.99 1.24 1.61 2.01 2.07 1.89 1.64 1.47 1.45
0.68 0.77 0.76 0.66 0.68 0.66 0.62 0.63 0.65 0.64 0.67 0.69 0.74 0.66 0.60 0.61 0.63 0.74 0.74 0.80 0.73 0.77 0.85 0.79 0.71 0.73 0.73 0.64 0.58 0.63 0.67 0.69 0.76 0.90 1.01 1.17 1.36 1.77 2.15 2.20 2.04 1.83 1.67
0.55 0.67 0.76 0.72 0.73 0.69 0.66 0.69 0.71 0.70 0.65 0.67 0.70 0.63 0.58 0.62 0.63 0.75 0.79 0.78 0.76 0.81 0.85 0.89 0.88 0.82 0.74 0.67 0.65 0.64 0.65 0.69 0.86 0.97 1.01 1.14 1.12 1.17 1.60 2.13 2.35 2.28 2.05
0.50 0.58 0.69 0.70 0.74 0.76 0.76 0.78 0.78 0.73 0.72 0.74 0.76 0.71 0.66 0.65 0.68 0.87 0.92 0.82 0.87 0.98 1.04 1.09 1.05 0.96 0.87 0.83 0.85 0.82 0.74 0.78 0.99 1.07 1.01 0.96 0.98 0.89 1.00 1.28 1.61 1.89 2.13
0.52 0.53 0.57 0.64 0.83 0.85 0.80 0.86 0.89 0.87 0.93 0.94 0.94 0.90 0.84 0.81 0.89 1.06 1.13 1.04 1.03 1.18 1.17 1.07 1.12 1.15 1.07 1.09 1.04 1.03 0.93 0.93 1.00 0.96 0.97 1.03 1.05 1.02 1.01 0.87 1.00 1.23 1.68
0.47 0.45 0.50 0.61 0.74 0.84 0.97 1.05 1.14 1.15 1.16 1.28 1.34 1.31 1.13 1.08 1.13 1.29 1.38 1.35 1.31 1.44 1.45 1.34 1.45 1.47 1.38 1.43 1.30 1.19 1.12 1.09 1.08 1.06 1.05 1.13 1.21 1.11 1.14 1.02 0.96 0.82 1.02
0.37 0.37 0.42 0.60 0.77 0.92 1.02 1.16 1.41 1.57 1.67 1.67 1.68 1.73 1.64 1.44 1.53 1.64 1.61 1.84 1.92 1.90 1.91 1.86 1.98 2.02 1.77 1.61 1.92 1.89 1.49 1.21 1.09 1.15 1.23 1.25 1.33 1.35 1.31 1.24 1.18 1.00 0.89
0.27 0.30 0.36 0.51 0.75 0.98 1.19 1.36 1.55 1.87 2.04 2.04 2.11 2.04 1.98 1.86 1.88 1.80 1.88 2.10 2.16 2.28 2.37 2.22 2.36 2.45 2.13 1.84 2.27 2.72 2.28 1.85 1.25 1.03 1.14 1.25 1.39 1.46 1.41 1.30 1.30 1.25 1.14
0.22 0.24 0.29 0.42 0.65 0.95 1.24 1.49 1.69 1.93 2.19 2.28 2.19 2.15 2.18 2.24 2.27 2.15 2.11 2.24 2.26 2.35 2.55 2.60 2.56 2.68 2.61 2.26 2.23 2.69 2.63 2.31 1.88 1.32 1.16 1.23 1.38 1.50 1.58 1.60 1.45 1.41 1.30
0.24 0.25 0.29 0.43 0.58 0.78 1.04 1.36 1.62 1.87 2.19 2.27 2.25 2.24 2.28 2.37 2.44 2.38 2.33 2.39 2.41 2.38 2.50 2.59 2.57 2.80 3.00 2.74 2.46 2.22 2.15 2.20 2.25 1.84 1.40 1.29 1.43 1.51 1.64 1.63 1.66 1.71 1.63
0.31 0.31 0.39 0.51 0.64 0.81 1.02 1.34 1.66 1.85 2.01 2.22 2.24 2.16 2.10 2.18 2.18 2.14 2.25 2.40 2.42 2.40 2.41 2.60 2.71 2.90 2.93 2.85 2.71 2.56 2.38 2.20 1.89 1.98 1.86 1.61 1.57 1.47 1.59 1.78 1.87 1.91 1.82
0.43 0.46 0.54 0.64 0.82 0.95 1.03 1.15 1.32 1.53 1.81 1.94 2.05 2.09 2.11 2.12 2.00 1.91 2.01 2.11 2.19 2.25 2.24 2.29 2.45 2.61 2.80 2.94 2.88 2.69 2.61 2.52 2.34 2.21 1.92 1.77 1.83 1.65 1.55 1.60 1.72 1.82 1.96